RH
30 31 32 33 33 34 34 33 32 32 31 30 30 29 29 28 28 29 28 28 27 26 25 25 25 27 28 28 29 29 29 29 28 28 27 27 28 28 30 32 33 36 40 42 40 38 37 37 36 34 31 28 26 25 23 21 19 18 18 17 17 18 18
27 29 29 30 30 31 31 31 31 31 30 29 29 28 28 27 26 26 26 26 27 26 26 26 25 25 25 25 25 26 28 29 29 29 29 28 28 27 26 26 25 25 27 28 27 26 25 24 24 25 24 22 21 20 19 20 19 19 19 19 20 20 21
24 25 26 26 27 27 27 27 27 27 27 27 27 27 26 26 25 25 24 24 24 24 24 25 25 25 25 25 24 24 24 24 25 26 27 28 29 30 31 31 30 30 30 31 31 30 29 27 27 28 28 28 27 25 24 24 24 24 23 23 23 24 24
22 22 23 23 24 24 24 24 24 24 24 24 24 24 24 24 24 23 23 23 22 22 22 22 23 23 24 24 24 25 24 24 24 23 23 24 24 25 27 28 29 30 31 34 36 37 36 34 33 34 35 35 34 33 32 31 30 29 29 28 28 28 28
22 22 22 22 22 22 23 23 23 23 23 23 22 22 22 22 22 22 22 22 21 21 21 21 21 21 21 22 22 23 23 23 23 23 23 23 22 22 22 23 23 24 25 28 32 35 36 35 35 36 37 39 39 38 36 35 34 33 32 32 32 32 32
21 21 21 21 21 21 21 22 22 23 23 23 23 23 22 22 21 21 21 21 21 21 20 20 20 20 20 20 20 21 21 21 22 22 22 22 22 21 21 20 20 20 21 22 24 27 29 30 31 33 35 38 40 40 38 36 36 35 35 36 36 36 35
21 21 21 20 20 20 20 20 21 21 21 22 22 22 23 22 22 22 21 21 21 21 21 20 20 19 19 19 19 19 20 20 20 21 21 21 21 21 21 20 20 19 19 19 20 22 24 26 26 28 30 33 36 38 38 38 39 39 38 37 36 35 34
22 21 21 21 20 20 19 19 19 19 19 19 20 20 21 21 21 21 21 21 21 21 21 21 20 20 19 19 19 19 19 19 19 19 20 20 20 20 21 20 20 20 20 19 20 21 23 25 26 27 29 31 32 35 39 41 41 40 38 36 35 34 34
22 22 21 21 21 20 20 19 19 18 18 18 17 18 18 18 19 20 20 20 20 20 20 20 20 20 20 20 19 19 19 19 19 20 20 20 20 21 21 21 21 21 21 21 21 21 22 23 25 27 30 31 31 33 36 39 40 40 40 38 36 35 34
24 24 23 22 22 21 21 20 20 19 18 18 17 17 17 17 17 18 18 18 19 19 19 19 19 19 19 19 20 20 20 20 20 20 21 21 21 21 21 21 22 22 22 22 22 22 23 23 25 26 29 31 31 31 32 34 37 40 41 38 36 35 35
28 27 26 25 24 23 22 21 21 20 19 19 18 17 17 17 17 17 17 17 17 17 17 17 18 18 18 18 18 19 19 19 19 19 20 21 21 21 21 21 22 22 22 23 23 24 24 25 26 27 28 30 30 30 31 31 33 36 38 37 35 35 35
27 28 28 27 27 26 24 23 22 21 20 20 19 19 18 18 18 18 17 17 17 17 17 17 17 17 17 16 16 17 17 17 18 19 19 20 20 21 21 21 21 22 21 21 22 23 25 26 28 29 29 30 31 32 31 32 33 34 36 36 36 35 36
22 23 23 24 24 24 23 23 21 20 20 19 19 18 18 18 19 19 19 18 18 18 18 18 18 18 17 17 17 17 17 16 17 17 18 18 19 19 20 20 20 20 21 20 20 21 23 24 25 27 28 29 30 31 32 32 34 34 35 35 35 36 37
19 18 18 19 19 19 19 18 17 17 16 16 16 16 16 17 18 18 19 18 18 18 17 17 18 18 19 19 19 19 19 19 18 18 18 18 18 18 18 18 19 19 19 20 20 21 22 22 22 23 24 24 25 27 27 28 29 30 31 32 33 34 35
17 17 16 16 16 16 16 15 14 14 14 13 13 13 13 14 15 16 16 16 16 16 16 16 17 17 18 19 19 20 20 21 20 20 20 19 19 19 19 19 20 20 20 20 20 21 22 22 21 21 21 21 20 21 21 21 22 22 23 24 26 28 29
13 13 13 14 14 14 15 14 14 13 13 13 13 12 13 13 13 13 13 14 14 14 14 14 14 15 16 16 17 18 18 19 19 19 20 20 21 22 22 23 23 22 22 21 21 21 22 22 22 21 21 21 20 20 20 19 18 18 19 20 20 21 23
9 9 10 10 10 11 11 11 12 12 12 12 12 12 12 12 13 13 13 13 13 13 13 13 13 13 14 14 14 14 14 15 15 16 17 18 19 21 22 23 24 23 23 22 22 22 23 23 24 23 23 23 23 22 22 21 21 21 21 21 19 19 21
8 8 8 8 8 8 8 8 9 9 9 9 9 10 10 10 11 11 12 12 12 13 13 13 13 13 14 14 14 13 13 13 13 13 13 14 15 17 18 19 19 20 21 21 22 22 23 24 24 25 25 25 24 24 23 23 23 23 23 22 20 21 23
7 7 7 7 7 7 7 7 7 7 7 7 7 6 7 7 8 8 9 9 9 10 10 11 11 12 12 13 13 13 13 13 12 12 12 12 13 14 15 15 15 16 16 17 18 19 19 20 21 22 23 24 24 25 24 24 23 23 23 22 20 21 23
6 7 6 6 6 6 6 6 6 6 6 6 6 6 5 5 6 6 6 6 7 7 7 8 9 9 10 10 11 11 12 11 11 11 11 12 12 13 14 14 14 14 15 15 15 16 16 16 17 18 18 19 20 21 22 22 21 21 20 19 18 19 20
6 7 6 6 6 6 6 6 6 6 6 6 6 5 5 5 5 5 5 5 5 6 6 6 6 7 7 8 8 8 9 9 10 10 10 10 11 11 12 12 13 13 14 14 14 15 15 16 16 17 17 17 17 17 17 17 17 17 17 16 15 16 16
7 7 7 7 7 7 6 6 6 6 6 6 6 5 5 5 5 5 5 5 5 5 5 5 6 6 6 6 6 7 7 7 8 8 9 9 9 9 9 10 10 11 11 12 13 13 13 14 15 16 17 17 17 17 16 16 16 15 15 15 14 14 14
7 7 8 7 7 7 7 7 7 7 7 7 6 6 6 5 5 5 5 5 5 5 5 5 5 5 5 5 5 6 6 6 7 7 8 8 7 7 7 8 8 9 9 10 10 10 11 12 13 14 15 15 16 16 15 15 14 14 15 15 14 13 13
6 6 6 6 7 7 6 7 6 6 7 7 7 7 6 6 6 6 6 6 6 6 6 6 5 5 5 5 5 5 5 6 6 6 6 6 6 6 7 7 7 8 8 8 8 9 9 10 11 11 12 13 13 13 13 13 13 13 13 13 13 13 13
5 5 5 5 5 5 5 5 5 5 5 5 5 6 6 6 6 6 6 6 6 6 7 6 6 6 6 6 6 5 5 5 5 6 6 6 6 6 6 6 6 6 7 7 7 8 8 9 10 10 10 10 10 10 11 11 11 12 12 11 12 12 12
5 5 5 5 5 5 5 5 5 5 5 4 4 4 4 5 5 5 5 5 5 6 6 6 7 7 7 7 7 6 6 6 6 6 6 5 6 5 5 6 6 5 6 6 6 6 7 7 8 8 9 9 9 9 9 9 10 10 10 10 10 10 10
5 5 5 5 5 5 5 5 5 5 5 5 5 5 5 5 5 4 4 4 4 5 5 5 5 5 6 6 6 6 6 6 6 6 6 6 6 6 6 6 6 5 6 6 6 6 6 6 7 7 7 7 7 8 8 8 8 8 8 8 9 9 9
4 4 4 4 4 4 4 5 5 5 5 4 4 5 5 5 5 5 4 4 4 4 5 5 5 5 5 5 5 5 5 5 5 6 6 6 6 6 6 6 6 6 6 6 6 6 6 6 7 7 7 7 7 7 7 7 7 7 7 7 7 7 8
4 4 4 4 4 4 4 4 4 4 4 4 4 4 4 4 4 4 4 4 4 4 5 5 5 5 5 5 5 5 5 5 5 5 5 5 5 5 5 5 5 5 5 5 6 6 6 7 7 7 7 7 7 8 7 7 8 7 7 7 7 7 7
5 5 5 4 4 4 4 4 4 4 4 3 3 3 4 3 3 3 3 3 4 4 4 4 4 4 5 5 5 5 5 5 5 5 5 5 5 5 5 5 5 5 4 4 5 5 5 5 6 6 6 6 6 7 7 7 8 8 8 8 8 8 8
5 5 5 5 5 5 5 5 5 5 4 4 4 4 4 4 3 3 3 3 3 3 3 4 4 4 4 4 4 4 5 5 5 5 5 5 5 5 5 5 5 5 5 4 5 5 5 5 5 5 5 5 5 5 6 6 6 6 6 7 7 7 7
4 4 4 4 4 4 5 4 5 5 4 4 4 4 4 4 4 4 4 4 4 4 4 4 4 4 4 4 4 4 4 4 4 4 4 4 5 5 5 5 5 5 5 5 5 5 5 5 5 5 5 5 5 5 5 5 5 5 5 5 5 5 5
4 4 4 4 4 4 4 4 4 4 4 4 4 4 4 4 4 4 4 4 4 4 4 4 4 4 4 4 4 4 4 4 4 4 4 4 4 4 4 4 4 4 5 5 5 5 5 5 5 5 5 5 6 6 6 5 5 5 5 5 5 5 5
4 3 3 4 3 3 4 4 4 4 4 3 3 3 3 3 3 3 3 3 3 4 4 4 4 4 4 4 4 4 4 4 5 5 5 5 4 4 4 4 4 4 4 4 4 4 4 4 4 4 5 5 5 6 6 6 6 6 6 6 6 5 5
3 3 3 3 3 3 3 3 3 4 4 3 3 3 3 3 3 3 3 3 3 3 3 3 3 3 4 4 4 4 4 4 4 4 5 5 5 5 5 5 5 4 4 4 4 4 4 4 4 4 4 4 4 5 5 5 5 5 5 5 6 6 5
3 3 3 3 3 3 3 3 3 3 3 3 3 3 3 3 3 3 3 3 3 3 3 3 3 3 3 3 3 3 3 4 4 4 4 4 4 4 5 5 5 5 5 4 5 5 4 4 4 4 4 4 4 4 4 4 4 4 4 5 5 5 5
Wind_Speed
126 127 127 128 129 129 130 130 130 131 131 131 131 131 130 130 130 130 129 129 129 129 129 130 130 131 132 133 134 135 135 135 136 136 137 137 137 137 137 138 138 138 138 139 140 140 139 139 139 139 139 139 138 137 137 136 135 133 132 130 129 128 127
125 126 127 127 128 129 129 130 130 131 131 131 131 131 131 131 131 131 131 130 130 130 130 129 129 129 130 131 132 132 133 134 135 135 135 135 135 136 136 137 137 137 136 137 138 139 138 137 136 136 136 136 136 135 134 132 131 130 128 127 125 125 124
125 126 127 127 128 129 129 130 130 131 131 131 131 132 132 132 132 132 132 131 131 131 130 130 130 130 130 130 130 131 131 132 133 133 134 134 134 135 135 136 136 136 135 135 135 136 136 135 134 133 133 133 133 133 131 130 129 128 127 125 124 123 122
125 126 127 128 128 129 129 130 130 131 131 131 132 132 132 133 133 133 133 133 132 132 132 131 131 130 130 130 130 130 131 131 131 132 132 132 133 133 134 135 135 135 135 134 134 134 135 135 134 133 132 132 132 132 131 130 129 128 127 125 124 122 122
124 125 126 127 128 128 129 129 130 130 131 131 132 132 132 133 133 133 133 133 133 133 132 132 132 131 131 131 131 131 131 131 131 131 131 132 132 132 133 133 133 134 134 133 133 133 134 134 134 133 132 132 131 132 131 130 130 128 127 126 124 123 122
123 124 125 126 127 127 128 129 129 130 130 130 131 131 132 132 132 132 132 133 133 133 133 133 132 132 132 132 132 131 131 131 131 132 132 132 131 132 132 132 132 132 132 132 132 132 132 133 133 132 131 131 131 131 131 131 130 128 127 126 125 124 124
123 124 125 126 126 127 127 128 128 129 129 129 130 130 130 131 131 131 132 132 132 132 132 133 133 132 132 132 132 132 132 132 132 132 132 132 132 132 132 132 132 132 131 131 131 130 131 131 131 131 130 130 130 130 130 130 129 128 127 127 126 124 124
123 124 125 126 127 127 128 128 128 128 129 129 129 129 129 130 130 130 131 131 131 132 132 132 132 132 132 132 132 132 132 132 132 132 132 132 132 132 132 132 132 132 131 131 130 130 129 130 130 130 130 129 129 128 128 128 129 128 128 127 126 124 123
122 123 124 125 126 127 128 128 129 129 129 129 129 129 129 129 129 130 130 130 131 131 131 131 131 131 131 131 131 131 131 131 131 131 132 132 132 132 132 132 132 131 131 131 130 129 129 129 128 128 129 129 129 128 127 127 128 127 127 127 126 125 123
120 121 123 124 125 126 127 128 128 129 129 129 129 129 129 129 129 129 130 130 130 131 131 131 131 131 131 131 131 131 131 131 131 131 131 131 131 132 131 131 131 131 131 131 130 129 129 128 127 127 128 128 128 128 127 126 126 126 126 127 126 124 123
119 120 121 123 124 125 125 126 127 127 128 128 128 128 129 129 129 129 129 130 130 130 130 130 130 130 130 130 130 130 130 130 130 130 130 130 131 131 131 131 131 130 130 130 129 129 129 128 127 127 127 127 128 128 127 126 125 125 125 126 126 124 124
119 120 121 122 123 124 125 125 126 126 126 127 127 127 127 127 128 128 129 129 129 129 130 130 130 130 130 130 130 130 129 129 129 129 129 129 130 130 130 130 130 130 129 129 129 128 128 127 127 127 127 127 127 127 127 126 125 124 125 125 125 124 123
118 119 120 121 122 123 124 125 125 125 125 125 126 126 125 125 126 127 127 128 128 128 128 129 129 129 129 129 129 130 129 129 129 129 129 129 129 129 129 129 129 129 128 128 128 127 127 127 127 126 126 126 127 126 126 126 125 125 124 124 124 123 123
119 119 120 121 121 122 123 124 124 124 124 124 124 124 124 124 124 125 126 126 126 126 126 126 126 127 127 128 128 129 129 129 129 129 129 128 128 128 128 128 128 128 128 128 127 127 127 127 127 126 126 126 126 126 125 125 124 124 123 123 122 122 122
119 119 120 120 121 121 122 122 123 123 123 123 123 123 123 122 122 123 123 124 124 124 124 124 124 124 124 125 126 126 127 128 128 128 128 127 127 127 127 127 127 127 127 127 127 127 127 127 127 127 126 126 126 126 125 124 124 123 122 122 121 121 120
119 119 119 120 120 121 121 122 122 122 122 122 122 122 121 121 121 121 121 121 122 122 122 122 122 122 122 123 123 124 124 125 125 125 125 125 125 125 125 126 127 127 127 127 127 126 126 127 127 127 127 127 127 127 126 125 124 123 122 122 121 120 120
118 118 118 119 119 120 120 121 121 122 122 122 122 122 121 121 120 120 120 120 120 120 120 120 120 120 120 121 121 121 122 122 122 122 122 121 122 122 123 124 125 126 126 126 126 125 125 126 126 126 126 126 126 126 126 126 124 123 123 124 122 120 120
116 117 117 118 118 118 119 119 120 121 121 122 122 121 121 121 120 120 120 120 120 119 119 120 120 120 120 119 120 120 120 121 120 120 119 118 119 120 121 122 122 123 123 124 124 124 124 124 124 125 125 125 125 125 125 125 124 123 124 124 122 120 120
114 114 115 116 116 117 117 118 118 119 120 120 121 120 120 119 119 119 119 119 119 119 119 119 119 120 120 120 120 120 121 120 120 119 118 118 117 118 118 119 120 120 120 121 121 122 122 122 122 122 122 122 123 123 124 124 124 123 124 123 121 119 119
111 112 112 113 114 114 115 115 116 117 118 118 119 118 118 117 117 117 117 117 117 117 117 118 118 119 119 120 120 120 120 120 120 119 118 118 118 118 118 119 120 119 119 119 119 120 120 120 120 120 120 120 120 121 123 123 123 122 122 121 119 118 118
109 110 110 111 111 112 112 113 113 113 114 115 116 116 116 115 114 114 114 114 115 115 115 116 116 117 117 118 118 118 119 119 119 119 119 119 119 119 119 119 119 119 119 119 119 119 119 119 119 119 119 119 120 120 121 121 121 121 121 120 119 117 116
108 108 109 109 110 110 111 111 111 112 112 113 114 114 113 113 112 112 112 112 112 112 113 113 114 114 115 115 115 115 115 116 117 117 118 119 119 119 119 119 119 118 118 119 119 119 119 119 119 119 120 120 120 121 121 121 120 120 120 120 119 117 116
107 107 107 108 108 109 110 110 110 110 111 111 112 112 112 111 111 111 110 110 110 110 111 111 111 112 112 112 112 112 112 113 113 115 117 119 118 117 117 117 117 117 117 117 118 118 118 119 119 119 120 121 121 121 121 121 120 120 120 119 119 118 117
105 105 105 106 107 108 108 109 109 109 109 110 110 110 110 110 109 109 109 109 109 109 109 110 110 110 110 110 110 110 110 110 111 112 115 116 116 115 115 115 115 115 115 115 115 116 116 117 117 118 119 119 120 120 121 121 120 120 120 120 119 118 118
102 102 103 103 104 105 106 106 107 107 108 108 108 108 109 108 108 108 108 108 108 108 108 108 109 109 110 110 110 110 109 109 109 110 112 113 113 113 113 113 113 113 113 113 113 114 114 114 115 116 116 117 118 118 118 118 119 119 119 119 118 118 117
99 100 100 101 101 102 103 104 104 105 106 106 106 105 106 106 107 107 107 106 106 106 107 107 108 108 109 110 110 109 109 109 108 109 110 111 111 111 111 111 111 111 111 111 111 111 112 112 113 114 114 115 115 116 116 116 117 117 117 117 117 117 116
97 97 98 98 99 100 100 101 102 103 103 104 103 103 103 104 105 105 105 104 103 104 104 105 105 106 107 108 108 108 108 108 108 109 110 110 110 110 110 110 109 109 109 109 109 109 109 110 111 112 112 113 113 114 114 115 116 115 115 115 115 115 114
95 95 95 96 96 97 98 99 99 100 101 101 101 100 101 101 102 102 102 102 102 102 102 102 103 103 104 105 106 106 106 106 107 108 109 110 110 110 110 109 109 108 108 107 107 107 107 107 108 109 110 111 112 112 113 114 114 114 114 113 113 113 112
93 94 94 94 94 94 95 96 97 97 98 98 98 98 98 99 99 99 99 99 99 99 99 100 100 101 102 103 103 103 103 104 104 105 107 108 109 109 109 109 108 108 107 106 106 106 105 106 106 107 108 109 110 110 110 111 112 113 112 112 112 111 111
92 93 93 92 92 92 93 93 94 95 95 95 95 95 96 96 96 96 96 96 96 95 96 97 97 98 99 100 100 100 101 101 102 103 105 106 107 107 107 107 107 107 107 106 106 105 105 106 106 106 107 107 107 107 107 108 109 110 111 111 111 110 110
90 91 91 91 91 91 92 92 93 94 94 94 94 93 93 93 93 93 93 93 93 93 93 94 94 95 96 97 97 98 98 99 99 101 102 104 104 104 105 105 105 105 105 104 105 105 105 105 105 105 106 106 105 105 106 107 107 107 108 109 109 108 107
89 89 89 89 89 90 90 91 91 92 92 93 93 93 92 92 91 90 90 90 90 90 90 91 91 92 93 94 95 95 95 96 97 98 100 101 102 102 102 102 103 103 103 103 103 104 104 104 104 104 104 105 105 105 105 106 106 106 106 106 106 105 105
86 86 86 86 86 87 87 89 90 90 91 91 92 91 91 90 89 89 89 89 89 89 88 88 89 89 90 91 92 92 92 93 94 96 97 98 99 99 100 100 100 100 101 101 102 102 102 102 102 102 102 103 103 104 104 104 104 104 105 105 105 104 103
83 83 83 83 84 84 84 85 86 88 89 89 89 89 89 88 88 88 88 88 87 87 87 87 87 88 88 88 88 89 89 90 91 92 94 95 96 97 97 97 98 98 98 99 99 100 100 101 101 101 100 100 101 101 102 103 103 103 103 103 104 104 103
80 80 79 80 80 81 81 82 83 85 86 87 87 87 87 86 86 86 86 86 85 84 85 85 86 86 86 86 86 86 87 87 88 89 91 92 93 94 94 95 95 95 96 96 97 98 98 98 99 99 99 99 99 99 100 100 101 101 101 101 102 103 102
78 77 76 76 76 77 78 79 80 81 82 83 84 85 85 84 84 84 84 84 83 83 83 83 83 84 84 84 83 83 84 85 86 87 88 89 90 91 91 92 93 93 93 93 94 95 95 96 96 97 97 97 97 97 98 98 99 99 99 99 100 100 100
Wind_Direction
257 257 258 258 258 259 259 259 260 260 260 260 260 261 261 261 261 260 260 261 261 261 261 261 260 261 261 261 261 262 262 262 263 263 263 263 264 264 264 264 265 265 265 266 266 267 267 267 268 269 270 270 270 270 271 271 271 272 272 272 273 273 273
256 256 257 257 258 258 258 259 259 260 260 260 261 261 261 261 261 261 261 261 261 261 261 261 261 261 261 261 261 262 262 262 262 263 263 263 264 264 264 265 265 265 265 266 266 267 267 268 268 269 269 270 270 270 271 271 272 272 272 272 272 273 273
255 256 256 256 257 257 257 258 258 259 259 259 260 260 260 261 261 261 261 261 261 261 261 261 261 261 261 261 262 262 262 262 262 262 263 263 263 263 264 264 265 265 265 265 266 266 267 267 268 268 269 269 270 270 271 271 271 271 272 272 272 272 273
256 256 256 256 257 257 257 258 258 258 258 259 259 259 260 260 260 261 261 261 261 261 261 261 261 261 261 261 261 261 262 262 262 262 262 263 263 263 263 263 264 264 264 265 265 266 266 267 267 267 268 268 269 269 270 270 271 271 271 271 272 272 272
256 256 256 257 257 257 257 258 258 258 258 259 259 259 259 260 260 260 261 261 261 261 261 261 261 261 261 261 261 261 261 262 262 262 262 262 263 263 263 263 263 264 264 264 264 265 265 266 266 267 267 268 268 269 269 270 270 270 271 271 271 272 272
257 257 257 257 257 257 257 257 258 258 258 258 259 259 259 260 260 260 260 261 261 261 261 261 261 261 261 261 261 261 262 262 262 262 262 262 263 263 263 263 263 264 264 264 264 264 265 265 266 266 267 267 268 268 269 269 270 270 271 271 271 271 271
257 257 257 257 258 258 258 258 258 258 258 258 258 258 259 259 260 260 260 260 260 261 261 261 261 261 261 261 261 261 262 262 262 262 262 263 263 263 263 263 264 264 264 264 264 265 265 265 266 266 267 267 267 268 268 269 270 270 270 270 270 270 271
257 257 257 258 258 258 258 258 258 258 258 258 258 258 258 259 259 259 260 260 260 260 260 261 261 261 261 261 261 261 262 262 262 262 262 262 263 263 263 263 264 264 264 264 264 265 265 265 266 266 267 267 267 267 268 268 269 269 269 270 270 270 270
257 257 257 257 258 258 258 259 259 259 259 259 259 259 259 259 259 259 260 260 260 260 260 261 261 261 261 261 261 261 261 262 262 262 262 262 263 263 263 263 263 264 264 264 264 264 265 265 265 265 266 266 266 266 266 267 267 268 269 269 269 269 270
257 257 257 258 258 258 258 259 259 259 259 260 260 260 260 260 260 260 260 260 260 260 261 261 261 261 261 261 261 261 262 262 262 262 262 262 262 263 263 263 263 264 264 264 264 264 265 265 265 265 265 265 266 266 266 266 266 267 268 268 269 269 269
258 258 258 258 258 259 259 259 259 259 259 259 260 260 260 260 260 260 260 260 261 261 261 261 261 261 261 262 262 262 262 262 262 262 262 262 263 263 263 263 263 264 264 264 264 264 265 265 265 265 265 265 266 266 266 266 266 267 267 268 268 269 269
257 258 258 258 259 259 259 259 259 260 260 260 260 260 260 260 260 260 261 261 261 261 261 261 261 262 262 262 262 262 262 262 262 263 263 263 263 263 263 264 264 264 264 264 264 264 265 265 265 265 265 265 266 266 266 267 267 267 267 267 268 269 269
258 258 258 258 259 259 259 260 260 260 260 260 260 260 260 260 261 261 261 261 261 261 261 261 261 262 262 262 263 263 263 263 262 262 263 263 263 263 263 264 264 264 265 265 265 265 265 265 265 265 265 265 265 266 266 266 266 267 267 267 267 268 268
258 258 259 259 259 259 260 260 260 261 261 261 261 261 261 261 261 261 261 262 262 262 261 261 261 262 262 262 262 262 263 263 263 263 263 263 263 263 263 264 264 264 265 265 265 266 266 266 266 265 265 265 265 265 265 265 265 266 266 266 267 267 267
260 260 260 260 260 261 261 261 262 262 262 262 262 262 262 262 262 261 262 262 262 262 262 262 262 262 262 262 262 262 262 262 262 263 263 263 263 264 264 264 264 264 264 264 264 265 265 265 266 266 266 266 266 266 266 266 266 265 265 266 266 266 266
262 262 262 262 262 262 262 262 263 263 263 263 263 263 263 263 263 262 262 262 262 263 263 263 263 263 262 262 262 262 262 262 262 262 262 263 263 263 264 264 264 264 264 264 264 264 264 264 265 265 266 266 266 267 267 266 266 266 266 266 266 265 266
263 263 263 263 263 263 263 263 263 263 263 263 263 263 263 263 263 263 263 263 263 263 263 263 263 263 263 263 263 263 262 262 262 262 262 262 262 262 262 262 263 263 263 264 264 264 264 264 264 265 265 265 266 266 266 266 267 267 267 266 266 266 266
263 263 263 263 263 263 263 263 263 263 263 263 263 263 263 263 263 263 263 263 263 263 263 263 263 263 263 263 263 263 263 263 262 262 262 262 262 262 262 262 262 262 263 263 263 263 263 263 263 264 264 264 265 265 266 266 266 266 266 266 266 266 266
263 263 263 264 264 264 264 264 264 264 264 264 264 264 263 263 263 263 263 263 262 262 262 262 262 263 263 262 262 263 263 263 263 263 263 262 262 262 262 262 262 262 262 262 262 263 263 263 263 263 263 264 264 264 265 265 265 265 265 265 265 265 265
264 264 264 264 264 264 264 264 264 264 264 264 265 264 264 264 264 264 263 263 263 263 263 263 262 262 262 262 262 262 262 263 263 263 263 263 262 262 262 262 262 262 262 262 262 263 263 263 263 263 263 263 263 263 264 264 264 264 265 265 265 265 265
264 264 264 264 264 264 264 264 264 264 264 264 264 264 264 264 264 264 264 264 263 263 263 263 263 262 262 262 262 262 262 262 263 263 263 262 262 262 261 261 261 262 262 262 262 262 263 263 263 263 264 264 263 263 264 264 264 264 265 265 265 265 264
265 265 265 265 265 264 264 264 264 264 264 264 264 264 264 264 264 264 264 264 264 263 263 263 263 262 262 262 262 262 262 262 262 262 263 262 261 261 261 261 261 261 262 262 262 262 262 263 263 263 263 264 264 264 264 264 264 264 265 265 265 265 265
265 265 265 265 265 265 265 265 265 264 264 264 264 264 264 264 264 264 264 264 263 263 263 263 263 263 262 262 262 262 261 261 261 262 262 262 261 261 261 261 261 261 261 261 261 262 262 262 262 262 263 263 263 263 264 264 264 264 265 265 265 265 265
265 265 265 265 265 266 266 266 266 265 265 265 265 265 265 265 264 264 264 263 263 263 263 263 263 263 263 263 262 262 261 261 261 261 261 261 261 261 261 261 261 261 261 261 261 261 261 261 262 262 262 262 262 263 263 264 264 264 264 265 265 265 265
266 265 265 265 265 265 265 265 265 265 265 265 265 265 265 265 265 264 264 263 263 263 263 263 263 263 263 263 263 262 262 262 261 261 261 261 261 261 261 261 261 261 261 261 261 261 261 261 261 261 261 261 261 262 262 262 263 263 263 264 264 264 264
266 266 266 266 265 265 265 265 265 265 265 265 265 265 265 265 265 264 264 264 264 263 263 263 263 263 263 263 263 263 263 263 262 262 262 262 262 262 261 261 261 261 261 260 260 260 261 261 261 261 261 261 262 262 262 262 262 262 262 262 263 263 263
267 266 266 266 266 266 265 265 265 265 265 265 265 265 265 264 264 264 264 264 264 263 263 263 262 262 262 263 263 263 263 263 263 263 263 263 263 263 262 262 262 261 261 261 261 260 260 260 261 261 261 261 262 262 262 262 262 262 262 262 262 262 262
268 267 267 266 266 266 266 266 265 265 265 265 265 265 264 264 264 264 264 264 264 264 263 263 263 263 262 262 262 262 262 262 262 263 263 263 263 263 263 263 263 263 262 262 261 261 261 261 261 261 261 261 261 261 261 262 262 262 263 262 262 262 262
269 269 268 268 267 267 267 267 266 266 266 265 265 265 264 264 264 264 263 263 263 263 263 263 263 263 263 262 262 262 262 262 262 262 262 262 262 262 263 263 263 263 263 263 263 262 262 262 262 261 261 261 261 261 261 262 262 263 263 263 263 263 263
270 270 270 269 269 269 268 268 268 268 267 266 266 265 265 265 264 264 264 263 263 263 262 262 262 262 262 262 262 262 262 262 262 262 262 261 261 262 262 262 262 263 263 263 263 263 262 262 262 262 262 262 262 262 262 262 262 262 263 263 263 263 263
270 270 270 270 270 270 269 269 269 269 269 268 268 267 266 266 265 265 264 264 263 263 262 262 262 261 261 261 261 261 261 261 261 261 261 261 261 261 261 262 262 262 262 262 262 262 262 262 262 262 262 262 262 262 262 262 262 262 262 263 263 263 263
270 270 270 270 270 270 270 270 269 269 269 269 269 268 268 267 267 266 266 265 264 263 263 262 261 261 261 261 261 261 260 260 260 260 260 261 261 261 261 261 261 261 262 262 262 261 261 261 261 261 261 262 262 262 262 262 262 263 263 263 263 263 263
270 270 270 270 269 269 269 269 269 269 269 268 268 268 268 268 268 267 266 266 265 264 264 263 262 261 261 261 261 260 260 260 260 260 260 260 260 260 261 260 260 260 261 261 261 261 261 261 261 261 261 261 261 261 262 262 262 263 263 263 264 263 263
270 270 270 270 269 269 269 268 269 269 269 269 268 268 268 268 268 267 266 266 265 265 264 264 263 262 262 261 261 260 260 259 259 260 260 260 260 260 260 260 260 260 260 260 260 261 261 261 261 261 261 261 261 261 261 261 262 262 262 263 263 263 263
270 270 269 269 269 269 269 268 268 268 268 268 269 269 268 268 267 267 267 266 266 265 264 264 263 263 262 262 261 261 260 260 260 259 259 259 260 260 260 260 260 260 260 260 260 260 260 260 261 261 261 260 260 260 260 261 261 261 261 262 262 263 263
272 271 270 269 269 269 269 269 268 267 267 268 268 268 268 268 268 267 267 267 266 265 265 265 264 264 263 262 262 261 261 260 260 260 260 259 260 260 260 260 260 260 259 259 259 259 260 260 260 260 260 260 260 260 260 260 260 260 261 261 261 262 262